This demonstration page uses our WeatherBlox Daily Observations layout. Learn more.

Left ArrowRight Arrow

Hourly Observations for July 18, 2016

Temp ( °F °C ) Dew Point ( °F °C ) Humidity (%) Winds ( mph kmh ) Pressure ( in mb ) Visibility ( mi km ) Precip ( " mm )
12:53 am 00:53 Clear 74 23.3 70 21.1 88 88 NE 6 9 30.01 1016 10 16 0.00 0.00
1:53 am 01:53 Clear 73 22.8 70 21.1 90 90 NE 3 6 29.99 1016 10 16 0.00 0.00
2:53 am 02:53 Clear 71 21.7 69 20.6 94 94 N 5 7 30.00 1016 10 16 0.00 0.00
3:53 am 03:53 Clear 72 22.2 70 21.1 94 94 NE 5 7 30.01 1016 9 14 0.00 0.00
4:46 am 04:46 Partly Cloudy with Mist and Fog 72 22 70 21 94 94 NE 5 7 30.00 1016 5 8 0.00 0.00
4:53 am 04:53 Mostly Cloudy with Mist and Fog 72 22.2 70 21.1 94 94 NE 6 9 30.01 1016 4 6 0.00 0.00
5:53 am 05:53 Partly Cloudy with Mist and Fog 71 21.7 70 21.1 96 96 E 7 11 30.02 1017 4 6 0.00 0.00
6:53 am 06:53 Sunny 72 22.2 70 21.1 94 94 E 7 11 30.02 1017 7 11 0.00 0.00
7:53 am 07:53 Sunny 74 23.3 70 21.1 88 88 ESE 8 13 30.04 1017 10 16 0.00 0.00
8:53 am 08:53 Sunny 77 25 69 20.6 77 77 ESE 9 15 30.05 1018 10 16 0.00 0.00
9:53 am 09:53 Sunny 79 26.1 68 20 69 69 SE 15 24 30.06 1018 10 16 0.00 0.00
10:53 am 10:53 Sunny 82 27.8 68 20 63 63 ESE 15 24 30.05 1018 10 16 0.00 0.00
11:53 am 11:53 Sunny 84 28.9 69 20.6 61 61 SE 12 19 30.09 1019 10 16 0.00 0.00
12:53 pm 12:53 Partly Cloudy 85 29.4 69 20.6 59 59 SSE 12 19 30.10 1019 10 16 0.00 0.00
1:53 pm 13:53 Partly Cloudy 85 29.4 70 21.1 61 61 ESE 14 22 30.08 1019 10 16 0.00 0.00
2:53 pm 14:53 Mostly Sunny 87 30.6 70 21.1 57 57 SE 15 24 30.08 1019 10 16 0.00 0.00
3:53 pm 15:53 Partly Cloudy 87 30.6 70 21.1 57 57 ESE 15 24 30.07 1018 10 16 0.00 0.00
4:53 pm 16:53 Mostly Sunny 89 31.7 70 21.1 53 53 SE 16 26 30.05 1018 10 16 0.00 0.00
5:53 pm 17:53 Sunny 89 31.7 71 21.7 55 55 SSE 16 26 30.04 1017 10 16 0.00 0.00
6:53 pm 18:53 Sunny 89 31.7 71 21.7 55 55 SE 14 22 30.03 1017 10 16 0.00 0.00
7:53 pm 19:53 Sunny 87 30.6 73 22.8 63 63 ESE 10 17 30.02 1017 10 16 0.00 0.00
8:53 pm 20:53 Sunny 83 28.3 75 23.9 77 77 E 10 17 30.04 1017 10 16 0.00 0.00
9:53 pm 21:53 Clear 80 26.7 76 24.4 87 87 E 8 13 30.04 1017 10 16 0.00 0.00
10:53 pm 22:53 Clear 80 26.7 75 23.9 85 85 ESE 10 17 30.04 1017 10 16 0.00 0.00
11:53 pm 23:53 Clear 79 26.1 73 22.8 82 82 SE 12 19 30.04 1017 10 16 0.00 0.00

Powered by AerisWeather